Mineral Wells, TX

2:48 PM CDT on March 30, 2017 (GMT -0500)
Mineral Wells

Weather History for KMWL - March, 2013

Change the Weather History Date:

Tuesday, March 5, 2013

  Actual Average Record
Temperature  
Mean Temperature 46 °F -  
Max Temperature 55 °F 61 °F 91 °F (2009)
Min Temperature 35 °F 39 °F 21 °F (2015)
Degree Days  
Heating Degree Days 19    
Moisture  
Dew Point 19 °F    
Average Humidity 36    
Maximum Humidity 63    
Minimum Humidity 20    
Precipitation  
Precipitation 0.00 in - - ()
Sea Level Pressure  
Sea Level Pressure 30.29 in    
Wind  
Wind Speed 19 mph (NNW)    
Max Wind Speed 29 mph    
Max Gust Speed 41 mph    
Visibility 10 miles    
Events      
Averages and records for this station are not official NWS values.
T = Trace of Precipitation, MM = Missing Value Source: NWS Daily Summary

Daily Weather History Graph

Daily Weather History Graph

Search for Another Location

Airport or City:

Trip Planner

Search our weather history database for the weather conditions in past years. The results will help you decide how hot, cold, wet, or windy it might be!

Date:

Astronomy

Mar. 05, 2013 Rise Set
Actual Time 6:54 AM CST 6:32 PM CST
Civil Twilight 6:30 AM CST 6:57 PM CST
Nautical Twilight 6:01 AM CST 7:26 PM CST
Astronomical Twilight 5:33 AM CST 7:54 PM CST
Moon 1:54 AM CST (3/5) 12:27 PM CST (3/5)
Length of Visible Light 12h 27m
Length of Day
11h 38m
Last Quarter, 40% of the Moon is Illuminated
Mar 5
Last Quarter
Mar 11
New
Mar 19
First Quarter
Mar 27
Full
Apr 2
Last Quarter

Hourly Weather History & Observations

Time (CST) Temp. Windchill Dew Point Humidity Pressure Visibility Wind Dir Wind Speed Gust Speed Precip Events Conditions
1:53 AM 46.9 °F - 34.0 °F 61% 30.00 in 10.0 mi North 27.6 mph 41.4 mph N/A   Partly Cloudy
2:53 AM 46.9 °F - 33.1 °F 59% 30.06 in 10.0 mi North 28.8 mph 39.1 mph N/A   Clear
3:53 AM 45.0 °F 36.9 °F 33.1 °F 63% 30.13 in 10.0 mi North 20.7 mph 34.5 mph N/A   Clear
4:53 AM 44.1 °F 35.2 °F 28.0 °F 53% 30.15 in 10.0 mi North 23.0 mph 28.8 mph N/A   Clear
5:53 AM 42.1 °F 34.9 °F 27.0 °F 55% 30.21 in 10.0 mi North 13.8 mph 25.3 mph N/A   Clear
6:53 AM 42.8 °F 36.6 °F 24.8 °F 49% 30.26 in 10.0 mi North 11.5 mph 19.6 mph N/A   Clear
7:53 AM 44.1 °F 36.5 °F 19.0 °F 37% 30.28 in 10.0 mi NNW 17.3 mph 21.9 mph N/A   Clear
8:53 AM 46.0 °F 37.8 °F 15.1 °F 29% 30.31 in 10.0 mi North 23.0 mph 31.1 mph N/A   Clear
9:53 AM 48.0 °F - 12.0 °F 24% 30.34 in 10.0 mi NNW 19.6 mph 29.9 mph N/A   Clear
10:53 AM 48.9 °F - 10.9 °F 22% 30.37 in 10.0 mi North 24.2 mph 29.9 mph N/A   Clear
11:53 AM 51.1 °F - 12.9 °F 22% 30.38 in 10.0 mi NW 16.1 mph 27.6 mph N/A   Clear
12:53 PM 52.0 °F - 12.9 °F 21% 30.36 in 10.0 mi NNW 18.4 mph 29.9 mph N/A   Clear
1:53 PM 55.0 °F - 14.0 °F 20% 30.33 in 10.0 mi North 16.1 mph 26.5 mph N/A   Clear
2:53 PM 55.0 °F - 14.0 °F 20% 30.32 in 10.0 mi NNW 19.6 mph 27.6 mph N/A   Clear
3:53 PM 55.9 °F - 15.1 °F 20% 30.31 in 10.0 mi NNW 18.4 mph 23.0 mph N/A   Clear
4:53 PM 55.0 °F - 14.0 °F 20% 30.31 in 10.0 mi NNW 18.4 mph 21.9 mph N/A   Clear
5:53 PM 53.1 °F - 14.0 °F 21% 30.32 in 10.0 mi NNW 12.7 mph - N/A   Clear
6:53 PM 48.0 °F - 15.1 °F 27% 30.33 in 10.0 mi NNW 9.2 mph - N/A   Clear
7:53 PM 44.1 °F 42.5 °F 16.0 °F 32% 30.33 in 10.0 mi NNW 3.5 mph - N/A   Clear
8:53 PM 44.1 °F 41.5 °F 16.0 °F 32% 30.35 in 10.0 mi West 4.6 mph - N/A   Clear
9:53 PM 37.9 °F 35.5 °F 17.1 °F 43% 30.37 in 10.0 mi WNW 3.5 mph - N/A   Clear
10:53 PM 37.9 °F - 17.1 °F 43% 30.37 in 10.0 mi Calm Calm - N/A   Clear
11:53 PM 35.1 °F 32.2 °F 18.0 °F 50% 30.38 in 10.0 mi West 3.5 mph - N/A   Clear